This demonstration page uses our WeatherBlox Daily Observations layout. Learn more.

Left ArrowRight Arrow

31.84235, -102.49876

Hourly Observations for August 11, 2017

Temp ( °F °C ) Dew Point ( °F °C ) Humidity (%) Winds ( mph kmh ) Pressure ( in mb ) Visibility ( mi km ) Precip ( " mm )
12:53 am 00:53 Clear 80 26.7 63 17.2 56 56 S 7 11 29.97 1015 10 16 0.00 0.00
1:53 am 01:53 Clear 79 26.1 64 17.8 60 60 SSE 9 15 29.97 1015 10 16 0.00 0.00
2:53 am 02:53 Clear 79 26.1 64 17.8 60 60 S 10 17 29.96 1014 10 16 0.00 0.00
3:53 am 03:53 Clear 77 25 65 18.3 66 66 S 9 15 29.95 1014 10 16 0.00 0.00
4:53 am 04:53 Clear 76 24.4 66 18.9 72 72 S 12 19 29.95 1014 10 16 0.00 0.00
5:53 am 05:53 Clear 75 23.9 66 18.9 74 74 S 9 15 29.96 1014 10 16 0.00 0.00
6:53 am 06:53 Clear 75 23.9 66 18.9 74 74 S 13 20 29.98 1015 10 16 0.00 0.00
7:53 am 07:53 Sunny 75 23.9 67 19.4 76 76 S 9 15 29.99 1016 10 16 0.00 0.00
8:53 am 08:53 Sunny 77 25 67 19.4 71 71 SSE 9 15 30.01 1016 10 16 0.00 0.00
9:53 am 09:53 Sunny 81 27.2 65 18.3 58 58 SSE 14 22 30.01 1016 10 16 0.00 0.00
10:53 am 10:53 Sunny 85 29.4 65 18.3 51 51 SSE 14 22 30.01 1016 10 16 0.00 0.00
11:53 am 11:53 Sunny 87 30.6 63 17.2 45 45 SE 13 20 30.01 1016 10 16 0.00 0.00
12:53 pm 12:53 Sunny 89 31.7 62 16.7 41 41 ESE 12 19 30.00 1016 10 16 0.00 0.00
1:53 pm 13:53 Sunny 91 32.8 61 16.1 37 37 SE 13 20 29.98 1015 10 16 0.00 0.00
2:53 pm 14:53 Sunny 93 33.9 62 16.7 36 36 SE 16 26 29.95 1014 10 16 0.00 0.00
3:53 pm 15:53 Mostly Sunny 94 34.4 59 15 31 31 SE 21 33 29.92 1013 10 16 0.00 0.00
4:53 pm 16:53 Sunny 94 34.4 59 15 31 31 SSE 15 24 29.90 1013 10 16 0.00 0.00
5:53 pm 17:53 Sunny 94 34.4 59 15 31 31 ESE 16 26 29.88 1012 10 16 0.00 0.00
6:53 pm 18:53 Sunny 93 33.9 57 13.9 30 30 SSE 17 28 29.87 1012 10 16 0.00 0.00
7:53 pm 19:53 Sunny 91 32.8 56 13.3 31 31 SSE 16 26 29.88 1012 10 16 0.00 0.00
8:53 pm 20:53 Clear 88 31.1 57 13.9 35 35 SSE 9 15 29.88 1012 10 16 0.00 0.00
9:53 pm 21:53 Clear 86 30 58 14.4 39 39 SE 10 17 29.89 1012 10 16 0.00 0.00
10:53 pm 22:53 Clear 85 29.4 58 14.4 40 40 SSE 12 19 29.91 1013 10 16 0.00 0.00
11:53 pm 23:53 Clear 83 28.3 58 14.4 43 43 SSE 9 15 29.91 1013 10 16 0.00 0.00

Powered by AerisWeather